Location: Staunton
(38.1490°N, 79.0720°W)
Time: 10:10:01
(UTC-04:00)

N. Korean satellite - Pass Details

Date: 21 September 2021
Orbit: 450 x 495 km, 97.3° (Epoch: 19 October)

Event Time Altitude Azimuth Distance (km) Brightness Sun altitude
Rises 06:07:03 0° 20° (NNE) 2,513 10.6 -11.8°
Reaches altitude 10° 06:09:11 10° 28° (NNE) 1,640 9.8 -11.4°
Maximum altitude 06:12:30 38° 98° (E) 735 8.1 -10.8°
Drops below altitude 10° 06:15:51 10° 169° (SSE) 1,652 9.3 -10.1°
Sets 06:18:00 0° 177° (S) 2,535 10.2 -9.7°
